Terminal Aerodrome Forecast
Issued by NWS

Home | Current Version | Previous Version | Text Only | Print | Product List | Glossary On
Versions: 1 2 3 4 5 6 7 8 9 10 11 12 13
000
FTUS42 TJSJ 232321
TAFJPS
TAF
TJPS 232321Z 2400/2424 08005KT P6SM VCSH FEW030
     FM241530 13015KT P6SM FEW025 SCT050
     FM242200 07006KT P6SM FEW030
      AMD NOT SKED TIL 240300=

USA.gov is the U.S. government's official web portal to all federal, state and local government web resources and services.